Regional Weather Roundup
Issued by NWS

Home | Current Version | Previous Version | Text Only | Print | Product List | Glossary On
Versions: 1 2 3 4 5 6 7 8 9 10 11 12 13 14 15 16 17 18 19 20 21 22 23 24 25 26 27 28 29 30 31 32 33 34 35 36 37 38 39 40 41 42 43 44 45 46 47 48 49 50
000
ASUS44 KOUN 260810
RWROK

WEATHER ROUNDUP FOR OKLAHOMA
NATIONAL WEATHER SERVICE NORMAN OK
200 AM CST MON JAN 26 2015

NOTE: "FAIR" INDICATES FEW OR NO CLOUDS BELOW 12,000 FEET WITH NO
      SIGNIFICANT WEATHER AND/OR OBSTRUCTIONS TO VISIBILITY.

OKZ001>007-009>012-014-015-017-260900-
NORTHWEST OKLAHOMA AND THE PANHANDLE

CITY           SKY/WX    TMP DP  RH WIND       PRES   REMARKS
GAGE           CLEAR     29  24  82 SW9       30.17F WCI  20
ENID/WOODRING  CLEAR     30  28  93 W3        30.17R
$$

OKZ016-021>023-033>039-044-045-260900-
SOUTHWEST OKLAHOMA

CITY           SKY/WX    TMP DP  RH WIND       PRES   REMARKS
LAWTON/REGL    CLEAR     30  25  81 CALM      30.21S
LAWTON/FT SILL CLEAR     35  27  70 N1        30.19F
FREDERICK      CLEAR     38  28  67 NW6       30.18F WCI  33
CLINTON        CLEAR     37  25  61 SW5       30.19F WCI  33
HOBART         CLEAR     35  26  69 W6        30.20F WCI  30
ALTUS AFB      CLEAR     33  29  84 NW5       30.21S WCI  28
$$

OKZ018>020-024>031-260900-
CENTRAL OKLAHOMA

CITY           SKY/WX    TMP DP  RH WIND       PRES   REMARKS
OKLAHOMA CITY  PTCLDY    30  24  78 SW3       30.18R
OKC/WILEY POST PTCLDY    33  27  78 CALM      30.19R
OKC/TINKER AFB PTCLDY    37  28  71 W7        30.18S WCI  31
STILLWATER     PTCLDY    27  23  85 W5        30.17S WCI  22
GUTHRIE        PTCLDY    30  25  81 S3        30.17F
$$

OKZ008-013-054>072-260900-
NORTHEAST OKLAHOMA

CITY           SKY/WX    TMP DP  RH WIND       PRES   REMARKS
TULSA          CLEAR     31  28  89 NW3       30.16R
TULSA/JONES    CLEAR     29  26  89 CALM      30.17R
PONCA CITY     PTCLDY    25  20  81 CALM      30.17F
BARTLESVILLE   CLEAR     24  21  88 CALM      30.18R
MUSKOGEE       CLEAR     31  27  85 NW8       30.16S WCI  23
$$

OKZ032-040>043-046>053-073>077-260900-
SOUTH CENTRAL/SOUTHEAST OKLAHOMA

CITY           SKY/WX    TMP DP  RH WIND       PRES   REMARKS
ARDMORE/DWNTWN CLEAR     37  28  70 CALM      30.21S
MCALESTER      PTCLDY    30  27  88 CALM      30.18R
$$



USA.gov is the U.S. government's official web portal to all federal, state and local government web resources and services.